Flag for U.S.A. Weather past 2 weeks in Pasco, Washington, U.S.A.

Now
76 °F

Passing clouds.


Feels Like: 77 °F
Forecast: 69 / 86 °F
Wind: 7 mph from Southwest

Location: Tri-Cities Airport

Current Time: Jul 22, 2014 at 2:42:07 AM

Latest Report: Jul 22, 2014 at 1:53 AM


Visibility: 10 mi

Pressure: 29.92 "Hg

Humidity: 26%

Dew point: 39 °F

Location of PascoLocation

Historic Weather in Pasco — Graph

°F

Pasco temperature yesterday

Maximum temperature yesterday: 84 °F (at 3:53 PM)
Minimum temperature yesterday: 60 °F (at 1:53 AM)
Average temperature yesterday: 73 °F

Past Weeks' High & Low Weather Summary

 TemperatureHumidityPressure
High108 °F (Jul 16, 3:53 PM)90% (Jul 8, 3:53 AM)30.04 "Hg (Jul 8, 3:53 AM)
Low55 °F (Jul 11, 4:53 AM)9% (Jul 16, 5:53 PM)29.66 "Hg (Jul 9, 7:53 PM)
Average82 °F41%29.86 "Hg
* Reported Jul 7 12:53 AM — Jul 22 12:53 AM, Pasco, Weather by CustomWeather, © 2014

Note: Actual official high and low records may vary slightly from our data, if they occured in-between our weather recording intervals... More about our weather records

Advertising

Pasco weather history for previous 24 hours

 ConditionsComfort  
Time TempWeatherWind HumidityBarometerVisibility
12:53 AM
Jul 22
75 °FClear.7 mph36%29.92 "Hg10 mi
11:53 PM
Jul 21
77 °FPassing clouds.6 mph33%29.92 "Hg10 mi
10:53 PM78 °FPassing clouds.6 mph32%29.90 "Hg10 mi
9:53 PM79 °FPassing clouds.7 mph34%29.90 "Hg10 mi
8:53 PM81 °FScattered clouds.No wind26%29.89 "Hg10 mi
7:53 PM83 °FSunny.6 mph22%29.89 "Hg10 mi
6:53 PM83 °FScattered clouds.6 mph23%29.88 "Hg10 mi
5:53 PM84 °FSunny.5 mph23%29.88 "Hg10 mi
4:53 PM84 °FScattered clouds.No wind21%29.89 "Hg10 mi
3:53 PM84 °FSunny.3 mph22%29.90 "Hg10 mi
2:53 PM82 °FSunny.5 mph22%29.91 "Hg10 mi
1:53 PM81 °FSunny.6 mph26%29.93 "Hg10 mi
12:53 PM78 °FSunny.3 mph31%29.95 "Hg10 mi
11:53 AM76 °FSunny.5 mph33%29.96 "Hg10 mi
10:53 AM73 °FSunny.5 mph36%29.97 "Hg10 mi
9:53 AM71 °FSunny.5 mph39%29.98 "Hg10 mi
8:53 AM68 °FSunny.5 mph47%29.97 "Hg10 mi
7:53 AM66 °FSunny.8 mph52%29.96 "Hg10 mi
6:53 AM63 °FSunny.6 mph60%29.93 "Hg10 mi
5:53 AM60 °FClear.9 mph62%29.92 "Hg10 mi
4:53 AM60 °FClear.9 mph60%29.89 "Hg10 mi
3:53 AM62 °FClear.3 mph60%29.87 "Hg10 mi
2:53 AM61 °FClear.6 mph62%29.86 "Hg10 mi
Weather by CustomWeather, © 2014

See weather overviewHow to use our weather pages